Showing default

KINEIS-5B, 62085

Orbit data source: Space-Track

KINEIS-5B, 62085 is a French payload satellite in SSO that was launched on Mon, 25 Nov 2024 UTC via an ELECTRON launch vehicle from the Rocket Lab Launch Complex (RLLC). Payload-class satellites include a variety of spacecraft equipped with specific instruments for various scientific and technological missions. These include communications satellites like Starlink; space stations such as the ISS; scientific satellites like the Hubble; Earth observation satellites from companies like Planet Labs, Umbra, and HawkEye 360; GPS; miniature CubeSats for education and research; and military/defense satellites.

Loading next visibility...
Identifier
62085, 2024-219E
Orbit
SSO
Country
Flag of FRFR
Related business
Manufacturer
KINEIS
Mission
Operational Commercial Communications
Bus & Motor
CUBESAT 16U, Unknown motor
Mass
28 kg wet, 28 kg dry
Launch date (UTC)
2024-11-25 (10 months ago)
Launch vehicle
ELECTRON
Launch site
Rocket Lab Launch Complex (RLLC)
Object type
Payload
Rocket body
Debris
Shape & HBR
Box + 2 Pan + 1 Ant, 0.8 m
Radar Cross Section
0.229 m², Medium (>0.1 m² and < 1m²)

Expand to show TLE details & history
Last TLE update: 13 hours ago

TLE from 13 hours ago
0 KINEIS-5B
1 62085U 24219E   25260.32258912  .00001313  00000-0  19297-3 0  9995
2 62085  97.9809  61.3900 0003089  80.2172 279.9387 14.77140088 43703
Epoch: 2025-09-17T07:44Z
TLE epoch observation values (Epoch: 2025-09-17T07:44:31.699Z)
Latitude
-0.00004°
Longitude
-51.24227°
Altitude
641.008 km
Speed
7.538 km/s
True Right ascension
04h 05m 33s
True Declination
0° 00' 00"
Sunlit
Object was in daylight at epoch
Visualization orbit readout
Latitude
Unknown
Longitude
Unknown
Altitude
Unknown
Speed
Unknown
Apparent Right ascension
Unknown
Apparent Declination
Unknown
Sunlit
N/A
Visualization observer readout
Local Sidereal Time
13:25:42
Azimuth
Unknown
Elevation
Unknown
Doppler factor
Unknown
Orbital elements
Apogee altitude
637.581 km
Perigee altitude
633.248 km
Semi-major axis
7,013.551 km
Eccentricity
0.00031
Inclination
97.9809°
RAAN
61.39°
Arg. of periapsis
80.2172°
True anomaly
279.90383°
Mean anomaly
279.9387°
Eccentric anomaly
279.92127°
Mean motion
3.69519 °/min
Orbital period
97.42 mins
BSTAR
0.00019297
Loading maneuver chart data...
Computing Atmospheric mass density...
Loading historical data...
Loading historical data...
Loading historical data...
Loading historical data...
Loading historical data...
Loading historical data...
Loading historical data...

Documentation

Showing up to 5 results
|